Weather History for Thermal, CA

Change the Weather History Date:

Saturday, March 29, 2014

  Actual Average Record
Temperature  
Mean Temperature 67 °F 66 °F  
Max Temperature 87 °F 84 °F 98 °F (1971)
Min Temperature 47 °F 49 °F 34 °F (1998)
Degree Days  
Heating Degree Days 0 2  
Month to date heating degree days 23 91  
Since 1 July heating degree days 812 1156  
Cooling Degree Days 2 3  
Month to date cooling degree days 95 56  
Year to date cooling degree days 105 68  
Growing Degree Days 18 (Base 50)    
Moisture  
Dew Point 39 °F    
Average Humidity 43    
Maximum Humidity 71    
Minimum Humidity 15    
Precipitation  
Precipitation 0.00 in 0.00 in 0.00 in (2015)
Month to date precipitation T 0.37  
Year to date precipitation 0.08 1.70  
Since 1 July precipitation 1.55 3.08  
Snow  
Snow 0.00 in - - ()
Month to date snowfall 0.0  
Year to date snowfall 0.0  
Since 1 July snowfall 0.0  
Snow Depth 0.00 in    
Sea Level Pressure  
Sea Level Pressure 29.96 in    
Wind  
Wind Speed 5 mph (SE)    
Max Wind Speed 13 mph    
Max Gust Speed 18 mph    
Visibility 10 miles    
Events      
T = Trace of Precipitation, MM = Missing Value Source: NWS Daily Summary

Daily Weather History Graph

Daily Weather History Graph

Search for Another Location

Airport:

Trip Planner

Search our weather history database for the weather conditions in past years. The results will help you decide how hot, cold, wet, or windy it might be!

Date:

Astronomy

Mar. 29, 2014 Rise Set
Actual Time 6:36 AM PDT 7:03 PM PDT
Civil Twilight 6:11 AM PDT 7:28 PM PDT
Nautical Twilight 5:41 AM PDT 7:57 PM PDT
Astronomical Twilight 5:12 AM PDT 8:27 PM PDT
Moon 5:44 AM PDT (3/29) 6:14 PM PDT (3/29)
Length of Visible Light 13h 16m
Length of Day
12h 26m
Waning Crescent, 1% of the Moon is Illuminated
Mar 29
Waning Crescent
Mar 30
New
Apr 7
First Quarter
Apr 15
Full
Apr 22
Last Quarter

Hourly Weather History & Observations

Time (PDT) Temp. Dew Point Humidity Pressure Visibility Wind Dir Wind Speed Gust Speed Precip Events Conditions
12:52 AM 52.0 °F 39.9 °F 63% 30.07 in 10.0 mi NW 3.5 mph - N/A   Clear
1:52 AM 52.0 °F 39.0 °F 61% 30.06 in 10.0 mi Calm Calm - N/A   Clear
2:52 AM 52.0 °F 39.0 °F 61% 30.05 in 10.0 mi NE 4.6 mph - N/A   Clear
3:52 AM 50.0 °F 39.9 °F 68% 30.04 in 10.0 mi Calm Calm - N/A   Clear
4:52 AM 48.0 °F 39.0 °F 71% 30.03 in 10.0 mi Calm Calm - N/A   Clear
5:52 AM 51.1 °F 42.1 °F 71% 30.02 in 10.0 mi North 5.8 mph - N/A   Clear
6:52 AM 48.0 °F 39.0 °F 71% 30.04 in 10.0 mi Calm Calm - N/A   Clear
7:52 AM 57.0 °F 44.1 °F 62% 30.05 in 10.0 mi Calm Calm - N/A   Clear
8:52 AM 68.0 °F 43.0 °F 40% 30.05 in 10.0 mi Calm Calm - N/A   Clear
9:52 AM 73.0 °F 43.0 °F 34% 30.05 in 10.0 mi ESE 3.5 mph - N/A   Clear
10:52 AM 78.1 °F 46.0 °F 32% 30.04 in 10.0 mi SE 8.1 mph - N/A   Clear
11:52 AM 81.0 °F 42.1 °F 25% 30.02 in 10.0 mi ESE 9.2 mph - N/A   Clear
12:52 PM 84.0 °F 37.0 °F 19% 29.99 in 10.0 mi SSE 11.5 mph - N/A   Clear
1:52 PM 84.9 °F 34.0 °F 16% 29.95 in 10.0 mi SE 10.4 mph 18.4 mph N/A   Clear
2:52 PM 87.1 °F 36.0 °F 16% 29.91 in 10.0 mi SSE 9.2 mph - N/A   Clear
3:52 PM 86.0 °F 35.1 °F 16% 29.88 in 10.0 mi SSE 9.2 mph - N/A   Clear
4:52 PM 84.0 °F 32.0 °F 15% 29.86 in 10.0 mi SSE 5.8 mph - N/A   Clear
5:52 PM 82.9 °F 34.0 °F 17% 29.86 in 10.0 mi SSE 5.8 mph - N/A   Clear
6:52 PM 77.0 °F 35.1 °F 22% 29.85 in 10.0 mi SSE 5.8 mph - N/A   Clear
7:52 PM 69.1 °F 34.0 °F 27% 29.85 in 10.0 mi Variable 3.5 mph - N/A   Clear
8:52 PM 69.1 °F 37.0 °F 31% 29.87 in 10.0 mi NW 3.5 mph - N/A   Clear
9:52 PM 66.0 °F 36.0 °F 33% 29.86 in 10.0 mi ESE 4.6 mph - N/A   Clear
10:52 PM 72.0 °F 41.0 °F 33% 29.86 in 10.0 mi Variable 3.5 mph - N/A   Clear
11:52 PM 73.0 °F 39.0 °F 29% 29.85 in 10.0 mi NNW 4.6 mph - N/A   Clear